Regional Weather Roundup
Issued by NWS

Home | Current Version | Previous Version | Text Only | Print | Product List | Glossary On
Versions: 1 2 3 4 5 6 7 8 9 10 11 12 13 14 15 16 17 18 19 20 21 22 23 24 25 26 27 28 29 30 31 32 33 34 35 36 37 38 39 40 41 42 43 44 45 46 47 48 49 50
000
ASHW40 PHFO 011310
RWRHI

WEATHER ROUNDUP FOR HAWAII
NATIONAL WEATHER SERVICE HONOLULU HI
300 AM HST WED OCT 01 2014

THIS IS AN AUTOMATED REPORT THAT HAS NOT BEEN QUALITY CONTROLLED.

NOTE..."FAIR" INDICATES FEW OR NO CLOUDS BELOW 12,000 FEET WITH NO
SIGNIFICANT WEATHER AND/OR OBSTRUCTIONS TO VISIBILITY.

* - THESE SITES REPORT LIMITED FIELDS

HIZ001>004-011400-
KAUAI-NIIHAU-

CITY           SKY/WX    TMP DP  RH WIND       PRES   REMARKS
LIHUE APT      PTCLDY    75  69  81 W7        29.93F
PORT ALLEN*      N/A     73 N/A N/A N5          N/A
POIPU*           N/A     73 N/A N/A NW1         N/A
PRINCEVILLE*   NOT AVBL
KOKOLE POINT*  NOT AVBL
MOLOAA DAIRY*  NOT AVBL
WAIMEA HTS*    NOT AVBL
PUU OPAE*      NOT AVBL
PUU LUA*       NOT AVBL
MAKAHA RIDGE*  NOT AVBL
$$

HIZ005>011-011400-
OAHU-

CITY           SKY/WX    TMP DP  RH WIND       PRES   REMARKS
HONOLULU       PTCLDY    77  71  82 CALM      29.92F
KALAELOA       CLEAR     73  71  93 CALM      29.93F
KANEOHE MCB    PTCLDY    77  74  90 S3        29.93F
WHEELER FIELD  CLEAR     70  68  94 CALM      29.98F
BELLOWS*       NOT AVBL
KAHUKU*        NOT AVBL
WHEELER*       NOT AVBL
WAIANAE HARBOR NOT AVBL
DILLINGHAM*      N/A     70  68  94 SE1         N/A
KAHUKU TRN*      N/A     81  77  89 SE3G10      N/A
KAWAILOA*      NOT AVBL
KII*             N/A     75  72  88 SE7         N/A
MAKUA RANGE*     N/A     73  70  88 SE5         N/A
OAHU FOREST NW NOT AVBL
SCHOFIELD BRK*   N/A     68  66  94 MISG        N/A
SCHOFIELD S*   NOT AVBL
WAIANAE VLY*   NOT AVBL
KUAOKALA*      NOT AVBL
HONOULIUULI*   NOT AVBL
MOKUOLOE IS*     N/A    N/A N/A N/A MISG        N/A
PALEHUA*       NOT AVBL
WAIAWA PHB*    NOT AVBL
$$

HIZ012>013-011400-
MOLOKAI-

CITY           SKY/WX    TMP DP  RH WIND       PRES   REMARKS
MOLOKAI AIRPT  CLEAR     74  71  91 NE3       29.94F
KALAUPAPA      NOT AVBL
MAKAPULAPAI*   NOT AVBL
MOLOKAI 1*     NOT AVBL
PUU ALII*      NOT AVBL
$$

HIZ016-011400-
KAHOOLAWE-

CITY           SKY/WX    TMP DP  RH WIND       PRES   REMARKS
KAHOOLAWE*     NOT AVBL
HAKIOAWA*      NOT AVBL
HONOKANAIA*      N/A     76  70  82 NE5G12    29.94F
KANELOA*         N/A     75  70  83 NE12G18   29.17F
KEALIALALO*    NOT AVBL
LUA MAKIKA*    NOT AVBL
$$

HIZ014>015-011400-
LANAI-

CITY           SKY/WX    TMP DP  RH WIND       PRES   REMARKS
LANAI CITY     FAIR      69  69 100 CALM      30.00S
LANAI 1*       NOT AVBL
$$

HIZ017>028-011400-
MAUI-

CITY           SKY/WX    TMP DP  RH WIND       PRES   REMARKS
KAHULUI        CLEAR     71  67  87 CALM      29.93F
KAPALUA-W MAUI NOT AVBL
HANA AIRPORT   PTCLDY    73  72  94 CALM      29.96S
HANA*          NOT AVBL
HALEAKALA SUMM   N/A     45  37  76 NE9G23      N/A
MAALAEA BAY*   NOT AVBL
HALEAKALA*     NOT AVBL
KAUPO GAP*     NOT AVBL
KULA 1*          N/A     53  47  81 E3          N/A
$$

HIZ023>026-011400-
BIG ISLAND OF HAWAII COAST AND LOWER SLOPES-

CITY           SKY/WX    TMP DP  RH WIND       PRES   REMARKS
KAILUA KONA    CLEAR     78  68  71 NE5       29.90F
HILO           PTCLDY    71  65  81 SW8       29.93F
HONOKAA*       NOT AVBL
KAWAIHAE MWT*  NOT AVBL
KAWAIHAE*        N/A     79 N/A N/A NE7         N/A
SOUTH POINT*   NOT AVBL
UPOLU AIRPORT* NOT AVBL
KAMUELA*       SUNNY     59  55  88 E7        30.04S
HAKALAU*         N/A     45  41  87 W5          N/A
KALOKO-HONOKO* NOT AVBL
PALI 2*          N/A     66 -11   4 N7          N/A
KEALAKOMO*       N/A     77  66  69 N6G12       N/A
KAUPULEHU*     NOT AVBL
KAPAPALA*        N/A     65  64  95 N3          N/A
LOWER KAHUKU*  NOT AVBL
PUHE CS*       NOT AVBL
PUHO CS*       NOT AVBL
PTA KEAMUKU*     N/A     61  54  77 SE12        N/A
WAIKOLOA*      NOT AVBL
$$

HIZ027>028-011400-
BIG ISLAND OF HAWAII INTERIOR AND SUMMMITS-

CITY           SKY/WX    TMP DP  RH WIND       PRES   REMARKS
BRADSHAW FIELD CLOUDY    49  43  80 SE5       30.28F
MK VISITOR CEN NOT AVBL
MAUNA KEA*       N/A     34  10  37 CALM        N/A
MAUNA LOA*     NOT AVBL
MAUNA LOA 1*   NOT AVBL
PTA KIPUKA*      N/A     52  48  87 E3          N/A
PTA RANGE 17*    N/A     72  66  83 E5          N/A
PTA WEST*        N/A     55  55 100 SE10        N/A
NENE CABIN*    NOT AVBL
AHUMOA*        NOT AVBL
PTA PORTABLE*  NOT AVBL
PUU MALI*      NOT AVBL
$$

HIC003-011400-
NORTHWEST ISLANDS-

CITY           SKY/WX    TMP DP  RH WIND       PRES   REMARKS
MIDWAY ISLAND  PTCLDY    81  72  74 SW12      29.87F
MIDWAY NOS*    NOT AVBL
FRENCH FRIGATE NOT AVBL
$$

PHZ110>124-180-011400-
BUOY REPORTS

STATION/POSITION TIME  TEMP    WIND        PRES    WAVE   SWELL
                       AIR SEA DIR/SP/G            HT/PER HT/DIR
                 (UTC) (F)     (DEG/KT/KT) (MB)    (FT/S) (FT/D)
BUOY 51001       NOT AVBL
BUOY 51101       NOT AVBL
BUOY 51100       1300   79     130/  8     1013.8F
BUOY 51003       1200   81 83  110/  6/  8 1013.6F   7/16   7
BUOY 51004       1207   80 81   70/ 10/ 12 1011.7    7/17   7/240
BARBERS PT BUOY  NOT AVBL
WAIMEA BAY BUOY  1300      82                N/A     5/15   5/320
KAILUA BAY BUOY  1300      82                N/A     4/11   2/ 40
LANAI BUOY       NOT AVBL
BARBERS PT 2     1300      83                N/A     5/17   5/290
PAUWELA MAUI     1300      81                N/A     7/15   5/320
HILO             1300      81                N/A     5/17   3/320
KANEOHE BAY BUOY NOT AVBL
HANALEI KAUAI    NOT AVBL
KAHULUI HARBOR   1300   74 81  120/  2/  2 1013.3S
HONOLULU HARBOR  1300   77     120/  1/  2 1013.6S
KILO NALU        NOT AVBL
HILO HARBOR      1200   72     190/  4/  6 1013.1F
MOKUOLOE         1300      84              1013.6F
NAWILIWILI       1300      83                N/A
WHOTS BUOY       NOT AVBL
BUOY 51028       NOT AVBL
$$

......................KEY........................................
  SKY/WX - SKY CONDITIONS/PRESENT WEATHER
  TMP    - TEMPERATURE IN FAHRENHEIT
  DWPT   - DEWPOINT IN FAHRENHEIT
  RH     - RELATIVE HUMIDITY IN PERCENT
  WIND   - DIRECTION AND SPEED /MPH FOR ISLANDS...KTS FOR BUOYS/
  PRES   - MEAN SEA LEVEL PRESSURE IN INCHES OF HG
  VSB    - VISIBILITY IN MILES
  HX     - HEAT INDEX
  WCI    - WIND CHILL INDEX
  VRB    - VARIABLE WIND DIRECTION
  N/A    - NOT AVAILABLE



USA.gov is the U.S. government's official web portal to all federal, state and local government web resources and services.